Flag for Australia Weather past 2 weeks in Darwin, Northern Territory, Australia

Now
79 °F

Clear.


Feels Like: 81 °F
Forecast: 78 / 93 °F
Wind: 6 mph from East

Location: Darwin Airport

Current Time: Oct 24, 2014 at 4:07:50 AM

Latest Report: Oct 24, 2014 at 3:00 AM


Visibility: 10 mi

Pressure: 29.89 "Hg

Humidity: 74%

Dew point: 70 °F

Location of DarwinLocation

Historic Weather in Darwin — Graph

°F

Darwin temperature yesterday

Maximum temperature yesterday: 93 °F (at 12:00 PM)
Minimum temperature yesterday: 75 °F (at 6:00 AM)
Average temperature yesterday: 85 °F

Past Weeks' High & Low Weather Summary

 TemperatureHumidityPressure
High97 °F (Oct 11, 4:30 PM)94% (Oct 9, 4:00 AM)30.01 "Hg (Oct 9, 4:00 AM)
Low73 °F (Oct 12, 6:30 AM)14% (Oct 17, 12:30 PM)29.77 "Hg (Oct 9, 3:30 PM)
Average84 °F64%29.88 "Hg
* Reported Oct 9 2:30 AM — Oct 24 2:30 AM, Darwin, Weather by CustomWeather, © 2014

Note: Actual official high and low records may vary slightly from our data, if they occured in-between our weather recording intervals... More about our weather records

Advertising

Darwin weather history for previous 24 hours

 ConditionsComfort  
Time TempWeatherWind HumidityBarometerVisibility
2:30 AM
Oct 24
81 °FClear.6 mph70%29.92 "Hg10 mi
2:00 AM81 °FPassing clouds.6 mph74%29.92 "HgN/A
1:30 AM81 °FClear.6 mph74%29.92 "Hg10 mi
1:00 AM82 °FScattered showers. Passing clouds.7 mph70%29.92 "HgN/A
12:30 AM82 °FPassing clouds.8 mph70%29.92 "HgN/A
12:00 AM82 °FPassing clouds.10 mph70%29.95 "HgN/A
11:30 PM
Oct 23
82 °FPassing clouds.12 mph66%29.95 "HgN/A
11:00 PM84 °FPassing clouds.14 mph58%29.95 "HgN/A
10:30 PM84 °FPassing clouds.16 mph66%29.92 "HgN/A
10:00 PM84 °FPassing clouds.17 mph66%29.92 "HgN/A
9:30 PM84 °FClear.15 mph70%29.89 "Hg10 mi
9:00 PM82 °FClear.13 mph66%29.89 "Hg10 mi
8:30 PM81 °FClear.5 mph54%29.86 "Hg10 mi
8:00 PM84 °FClear.5 mph51%29.86 "Hg10 mi
7:30 PM86 °FClear.6 mph43%29.86 "Hg10 mi
7:00 PM88 °FSunny.7 mph40%29.83 "Hg10 mi
6:30 PM88 °FSunny.9 mph38%29.83 "Hg10 mi
6:00 PM90 °FSunny.14 mph38%29.80 "Hg10 mi
5:30 PM90 °FSunny.15 mph36%29.80 "Hg10 mi
5:00 PM90 °FSunny.18 mph38%29.80 "Hg10 mi
4:30 PM91 °FSunny.20 mph34%29.80 "Hg10 mi
4:00 PM90 °FSunny.18 mph36%29.80 "Hg10 mi
3:30 PM91 °FSunny.20 mph32%29.80 "Hg10 mi
3:00 PM91 °FSunny.17 mph30%29.83 "Hg10 mi
2:30 PM93 °FSunny.16 mph34%29.83 "Hg10 mi
2:00 PM91 °FSunny.18 mph36%29.83 "Hg10 mi
1:30 PM91 °FSunny.17 mph41%29.86 "Hg10 mi
1:00 PM91 °FSunny.17 mph38%29.86 "Hg10 mi
12:30 PM93 °FSunny.13 mph26%29.89 "Hg10 mi
12:00 PM93 °FSunny.8 mph32%29.89 "Hg10 mi
11:30 AM91 °FSunny.14 mph30%29.92 "Hg10 mi
11:00 AM90 °FPassing clouds.9 mph36%29.92 "HgN/A
10:30 AM90 °FPassing clouds.8 mph33%29.95 "HgN/A
10:00 AM88 °FPassing clouds.12 mph49%29.95 "HgN/A
9:30 AM86 °FPassing clouds.10 mph55%29.95 "HgN/A
9:00 AM84 °FPassing clouds.12 mph58%29.95 "HgN/A
8:30 AM84 °FPassing clouds.8 mph62%29.95 "HgN/A
8:00 AM82 °FPassing clouds.9 mph66%29.95 "HgN/A
7:30 AM81 °FPassing clouds.7 mph74%29.95 "HgN/A
7:00 AM79 °FPassing clouds.7 mph79%29.95 "HgN/A
6:30 AM75 °FPassing clouds.6 mph89%29.92 "HgN/A
6:00 AM75 °FPassing clouds.6 mph89%29.92 "HgN/A
5:30 AM77 °FPassing clouds.5 mph83%29.92 "HgN/A
5:00 AM77 °FPassing clouds.5 mph83%29.89 "HgN/A
4:30 AM79 °FPassing clouds.5 mph79%29.89 "HgN/A
4:00 AM79 °FPassing clouds.6 mph79%29.89 "HgN/A
Weather by CustomWeather, © 2014

See weather overviewHow to use our weather pages